LGX06KS EDDR-LIRJ

Flight info

Callsign LGX06KS
Flight time 1h 22m
Altitude 27000
Route IXWIB1L IXWIB DCT HERBI Y163 NATOR N850 ODINA DCT GEN DCT UPDIN DCT DOCME M729 ELB/VFR
Aircraft D328/M-SDFGIRY/S

Departure

Time 2026-04-26 14:00
Airport Saarbrücken Airport (EDDR)

Arrival

Time 2026-04-26 15:23
Airport Marina di Campo Airport (LIRJ)
Time Latitude Longitude Altitude Speed Heading
2026-04-26 13:45 49.21831 7.11233 1060 ft 0 kts 345°
2026-04-26 13:55 49.21832 7.11233 1060 ft 1 kts 345°
2026-04-26 13:55 49.21843 7.11229 1060 ft 3 kts 345°
2026-04-26 13:55 49.21795 7.11181 1059 ft 10 kts 172°
2026-04-26 13:56 49.21709 7.11148 1058 ft 15 kts 198°
2026-04-26 13:56 49.21618 7.11080 1057 ft 11 kts 242°
2026-04-26 13:56 49.21606 7.10960 1055 ft 11 kts 267°
2026-04-26 13:56 49.21602 7.10829 1053 ft 12 kts 267°
2026-04-26 13:57 49.21598 7.10690 1051 ft 13 kts 267°
2026-04-26 13:57 49.21594 7.10546 1048 ft 14 kts 267°
2026-04-26 13:57 49.21589 7.10392 1043 ft 15 kts 268°
2026-04-26 13:57 49.21585 7.10228 1038 ft 16 kts 267°
2026-04-26 13:58 49.21573 7.10052 1031 ft 16 kts 253°
2026-04-26 13:58 49.21523 7.09886 1023 ft 16 kts 244°
2026-04-26 13:58 49.21486 7.09772 1018 ft 8 kts 242°
2026-04-26 13:58 49.21455 7.09716 1016 ft 8 kts 206°
2026-04-26 13:59 49.21417 7.09739 1016 ft 4 kts 89°
2026-04-26 13:59 49.21421 7.09846 1021 ft 27 kts 87°
2026-04-26 13:59 49.21444 7.10676 1051 ft 124 kts 87°
2026-04-26 14:00 49.21559 7.14975 3070 ft 144 kts 85°
2026-04-26 14:00 49.21605 7.16496 3719 ft 150 kts 85°
2026-04-26 14:00 49.21637 7.17554 4175 ft 152 kts 85°
2026-04-26 14:01 49.21708 7.19818 4875 ft 178 kts 85°
2026-04-26 14:01 49.21769 7.21789 5520 ft 192 kts 85°
2026-04-26 14:01 49.21827 7.23789 6314 ft 194 kts 85°
2026-04-26 14:01 49.21884 7.25826 7127 ft 197 kts 85°
2026-04-26 14:02 49.21943 7.27904 7900 ft 199 kts 85°
2026-04-26 14:02 49.22002 7.30028 8648 ft 202 kts 85°
2026-04-26 14:02 49.22061 7.32153 9373 ft 205 kts 85°
2026-04-26 14:02 49.22121 7.34301 10072 ft 207 kts 85°
2026-04-26 14:03 49.22183 7.36500 10730 ft 210 kts 85°
2026-04-26 14:03 49.22244 7.38741 11376 ft 213 kts 85°
2026-04-26 14:03 49.22080 7.40966 11959 ft 220 kts 115°
2026-04-26 14:03 49.21070 7.42708 12546 ft 224 kts 141°
2026-04-26 14:04 49.19821 7.44149 13151 ft 226 kts 142°
2026-04-26 14:04 49.18568 7.45591 13735 ft 228 kts 143°
2026-04-26 14:04 49.17308 7.47042 14282 ft 230 kts 143°
2026-04-26 14:04 49.16033 7.48509 14820 ft 233 kts 143°
2026-04-26 14:05 49.14743 7.49995 15342 ft 235 kts 143°
2026-04-26 14:05 49.13435 7.51501 15851 ft 237 kts 143°
2026-04-26 14:05 49.12106 7.53030 16351 ft 240 kts 143°
2026-04-26 14:05 49.10781 7.54554 16845 ft 241 kts 143°
2026-04-26 14:06 49.09446 7.56087 17323 ft 243 kts 143°
2026-04-26 14:06 49.08080 7.57655 17799 ft 245 kts 143°
2026-04-26 14:06 49.06743 7.59190 18244 ft 246 kts 143°
2026-04-26 14:06 49.05356 7.60779 18689 ft 248 kts 143°
2026-04-26 14:07 49.03990 7.62345 19102 ft 250 kts 143°
2026-04-26 14:07 49.02597 7.63940 19494 ft 253 kts 144°
2026-04-26 14:07 49.01182 7.65559 19876 ft 255 kts 144°
2026-04-26 14:07 48.99761 7.67183 20257 ft 257 kts 144°
2026-04-26 14:08 48.98338 7.68810 20633 ft 259 kts 145°
2026-04-26 14:08 48.96899 7.70454 21006 ft 260 kts 145°
2026-04-26 14:08 48.95458 7.72097 21364 ft 262 kts 145°
2026-04-26 14:08 48.93985 7.73778 21705 ft 264 kts 146°
2026-04-26 14:09 48.92525 7.75440 22027 ft 265 kts 146°
2026-04-26 14:09 48.91045 7.77125 22355 ft 267 kts 146°
2026-04-26 14:09 48.89562 7.78812 22701 ft 267 kts 146°
2026-04-26 14:09 48.88078 7.80497 23025 ft 268 kts 146°
2026-04-26 14:10 48.86552 7.82230 23342 ft 270 kts 146°
2026-04-26 14:10 48.85044 7.83941 23644 ft 271 kts 146°
2026-04-26 14:10 48.83533 7.85651 23927 ft 273 kts 146°
2026-04-26 14:10 48.82017 7.87366 24202 ft 275 kts 146°
2026-04-26 14:11 48.78935 7.90855 24779 ft 277 kts 146°
2026-04-26 14:11 48.77382 7.92611 25051 ft 278 kts 146°
2026-04-26 14:11 48.75832 7.94362 25308 ft 279 kts 146°
2026-04-26 14:12 48.74274 7.96121 25590 ft 279 kts 146°
2026-04-26 14:12 48.72710 7.97886 25855 ft 280 kts 146°
2026-04-26 14:12 48.71158 7.99636 26076 ft 282 kts 146°
2026-04-26 14:12 48.69588 8.01402 26316 ft 283 kts 146°
2026-04-26 14:13 48.66410 8.04973 26763 ft 285 kts 146°
2026-04-26 14:13 48.64820 8.06758 26971 ft 287 kts 146°
2026-04-26 14:13 48.63219 8.08554 27169 ft 288 kts 146°
2026-04-26 14:14 48.61606 8.10361 27204 ft 296 kts 146°
2026-04-26 14:14 48.59928 8.12241 27212 ft 303 kts 146°
2026-04-26 14:14 48.58230 8.14140 27212 ft 310 kts 146°
2026-04-26 14:14 48.56481 8.16095 27212 ft 317 kts 146°
2026-04-26 14:15 48.54686 8.18102 27214 ft 322 kts 146°
2026-04-26 14:15 48.52874 8.20125 27218 ft 327 kts 146°
2026-04-26 14:15 48.51044 8.22166 27216 ft 330 kts 146°
2026-04-26 14:15 48.49114 8.24021 27208 ft 327 kts 162°
2026-04-26 14:16 48.46936 8.24832 27220 ft 326 kts 173°
2026-04-26 14:16 48.44708 8.25398 27210 ft 328 kts 174°
2026-04-26 14:16 48.42435 8.25961 27207 ft 331 kts 174°
2026-04-26 14:16 48.40178 8.26514 27204 ft 333 kts 174°
2026-04-26 14:17 48.37890 8.27070 27202 ft 335 kts 174°
2026-04-26 14:17 48.35581 8.27630 27202 ft 336 kts 174°
2026-04-26 14:17 48.33260 8.28191 27201 ft 338 kts 174°
2026-04-26 14:17 48.30951 8.28750 27201 ft 339 kts 174°
2026-04-26 14:18 48.28627 8.29311 27200 ft 341 kts 174°
2026-04-26 14:18 48.26269 8.29881 27201 ft 342 kts 174°
2026-04-26 14:18 48.23924 8.30448 27199 ft 343 kts 174°
2026-04-26 14:18 48.21579 8.31013 27199 ft 343 kts 174°
2026-04-26 14:19 48.19208 8.31583 27199 ft 344 kts 174°
2026-04-26 14:19 48.16858 8.32149 27200 ft 345 kts 174°
2026-04-26 14:19 48.14481 8.32727 27199 ft 345 kts 174°
2026-04-26 14:19 48.12111 8.33302 27200 ft 346 kts 174°
2026-04-26 14:20 48.09768 8.33872 27200 ft 346 kts 174°
2026-04-26 14:20 48.07375 8.34453 27201 ft 347 kts 174°
2026-04-26 14:20 48.04993 8.35029 27201 ft 347 kts 174°
2026-04-26 14:20 48.02637 8.35601 27201 ft 347 kts 174°
2026-04-26 14:21 48.00232 8.36183 27204 ft 348 kts 174°
2026-04-26 14:21 47.97865 8.36755 27202 ft 348 kts 174°
2026-04-26 14:21 47.95461 8.37336 27202 ft 348 kts 174°
2026-04-26 14:21 47.93094 8.37907 27203 ft 349 kts 174°
2026-04-26 14:22 47.90700 8.38485 27204 ft 349 kts 174°
2026-04-26 14:22 47.88288 8.39065 27202 ft 349 kts 174°
2026-04-26 14:22 47.85881 8.39644 27198 ft 349 kts 174°
2026-04-26 14:22 47.83483 8.40217 27198 ft 349 kts 174°
2026-04-26 14:23 47.81103 8.40786 27200 ft 349 kts 174°
2026-04-26 14:23 47.78710 8.41357 27194 ft 349 kts 174°
2026-04-26 14:23 47.76305 8.41931 27192 ft 349 kts 174°
2026-04-26 14:23 47.73894 8.42507 27188 ft 349 kts 174°
2026-04-26 14:24 47.71515 8.43074 27192 ft 349 kts 174°
2026-04-26 14:24 47.69104 8.43645 27190 ft 348 kts 175°
2026-04-26 14:24 47.66689 8.44033 27189 ft 347 kts 177°
2026-04-26 14:24 47.64310 8.44377 27188 ft 347 kts 177°
2026-04-26 14:25 47.61892 8.44733 27188 ft 347 kts 177°
2026-04-26 14:25 47.59506 8.45083 27188 ft 347 kts 178°
2026-04-26 14:25 47.57088 8.45438 27186 ft 347 kts 177°
2026-04-26 14:25 47.54713 8.45789 27186 ft 347 kts 177°
2026-04-26 14:26 47.52312 8.46142 27181 ft 347 kts 177°
2026-04-26 14:26 47.49910 8.46494 27179 ft 347 kts 177°
2026-04-26 14:26 47.47508 8.46848 27180 ft 347 kts 177°
2026-04-26 14:26 47.45121 8.47198 27181 ft 347 kts 177°
2026-04-26 14:27 47.42717 8.47551 27184 ft 347 kts 177°
2026-04-26 14:27 47.40305 8.47903 27182 ft 347 kts 177°
2026-04-26 14:27 47.37931 8.48250 27182 ft 347 kts 177°
2026-04-26 14:27 47.35505 8.48605 27183 ft 347 kts 177°
2026-04-26 14:28 47.33108 8.48955 27185 ft 347 kts 177°
2026-04-26 14:28 47.30721 8.49305 27184 ft 347 kts 177°
2026-04-26 14:28 47.28319 8.49654 27186 ft 347 kts 177°
2026-04-26 14:28 47.25937 8.50000 27181 ft 346 kts 177°
2026-04-26 14:29 47.23545 8.50350 27186 ft 346 kts 177°
2026-04-26 14:29 47.21155 8.50700 27189 ft 346 kts 177°
2026-04-26 14:29 47.18736 8.51052 27193 ft 346 kts 177°
2026-04-26 14:29 47.16370 8.51396 27193 ft 346 kts 177°
2026-04-26 14:30 47.13960 8.51747 27197 ft 346 kts 177°
2026-04-26 14:30 47.11559 8.52096 27198 ft 346 kts 177°
2026-04-26 14:30 47.09179 8.52439 27199 ft 346 kts 177°
2026-04-26 14:30 47.06778 8.52788 27199 ft 346 kts 177°
2026-04-26 14:31 47.04375 8.53136 27201 ft 346 kts 177°
2026-04-26 14:31 47.02006 8.53480 27206 ft 346 kts 177°
2026-04-26 14:31 46.99609 8.53827 27209 ft 346 kts 177°
2026-04-26 14:31 46.97210 8.54172 27210 ft 346 kts 177°
2026-04-26 14:32 46.94821 8.54515 27216 ft 346 kts 177°
2026-04-26 14:32 46.92428 8.54859 27220 ft 346 kts 177°
2026-04-26 14:32 46.90018 8.55206 27220 ft 346 kts 177°
2026-04-26 14:32 46.87632 8.55548 27220 ft 346 kts 177°
2026-04-26 14:33 46.85228 8.55895 27223 ft 346 kts 177°
2026-04-26 14:33 46.82804 8.56243 27223 ft 346 kts 177°
2026-04-26 14:33 46.80402 8.56587 27213 ft 347 kts 177°
2026-04-26 14:33 46.77996 8.56931 27206 ft 347 kts 177°
2026-04-26 14:34 46.75589 8.57276 27206 ft 347 kts 177°
2026-04-26 14:34 46.73175 8.57621 27209 ft 347 kts 177°
2026-04-26 14:34 46.70769 8.57964 27210 ft 347 kts 177°
2026-04-26 14:34 46.68370 8.58307 27208 ft 347 kts 177°
2026-04-26 14:35 46.65995 8.58646 27205 ft 347 kts 177°
2026-04-26 14:35 46.63585 8.58989 27205 ft 346 kts 177°
2026-04-26 14:35 46.61183 8.59331 27208 ft 346 kts 177°
2026-04-26 14:35 46.58793 8.59672 27211 ft 346 kts 177°
2026-04-26 14:36 46.56424 8.60008 27215 ft 346 kts 177°
2026-04-26 14:36 46.54028 8.60348 27219 ft 346 kts 177°
2026-04-26 14:36 46.51616 8.60688 27215 ft 346 kts 177°
2026-04-26 14:36 46.49252 8.61023 27213 ft 346 kts 177°
2026-04-26 14:37 46.46832 8.61366 27209 ft 346 kts 177°
2026-04-26 14:37 46.44443 8.61702 27215 ft 346 kts 177°
2026-04-26 14:37 46.42055 8.62040 27213 ft 346 kts 176°
2026-04-26 14:37 46.39684 8.62374 27217 ft 346 kts 176°
2026-04-26 14:38 46.37297 8.62714 27218 ft 346 kts 177°
2026-04-26 14:38 46.34917 8.63047 27218 ft 346 kts 177°
2026-04-26 14:38 46.32517 8.63385 27210 ft 346 kts 176°
2026-04-26 14:38 46.30136 8.63718 27205 ft 346 kts 176°
2026-04-26 14:39 46.27710 8.64060 27202 ft 346 kts 176°
2026-04-26 14:39 46.25340 8.64395 27206 ft 346 kts 176°
2026-04-26 14:39 46.22955 8.64729 27198 ft 347 kts 176°
2026-04-26 14:39 46.20554 8.65065 27196 ft 346 kts 178°
2026-04-26 14:40 46.18141 8.65404 27189 ft 346 kts 177°
2026-04-26 14:40 46.15738 8.65739 27182 ft 346 kts 177°
2026-04-26 14:40 46.13327 8.66077 27172 ft 346 kts 177°
2026-04-26 14:40 46.10925 8.66412 27167 ft 346 kts 177°
2026-04-26 14:41 46.08518 8.66944 27150 ft 348 kts 172°
2026-04-26 14:41 46.06112 8.67575 27145 ft 348 kts 173°
2026-04-26 14:41 46.03704 8.68194 27133 ft 348 kts 173°
2026-04-26 14:41 46.01311 8.68809 27121 ft 348 kts 172°
2026-04-26 14:42 45.98922 8.69421 27109 ft 348 kts 173°
2026-04-26 14:42 45.96519 8.70034 27097 ft 348 kts 172°
2026-04-26 14:42 45.94150 8.70637 27104 ft 347 kts 172°
2026-04-26 14:42 45.91788 8.71240 27100 ft 347 kts 172°
2026-04-26 14:43 45.89397 8.71847 27093 ft 347 kts 173°
2026-04-26 14:43 45.87048 8.72443 27099 ft 347 kts 172°
2026-04-26 14:43 45.84636 8.73057 27097 ft 347 kts 172°
2026-04-26 14:43 45.82267 8.73659 27096 ft 347 kts 172°
2026-04-26 14:44 45.79877 8.74263 27094 ft 347 kts 173°
2026-04-26 14:44 45.77495 8.74866 27099 ft 346 kts 172°
2026-04-26 14:44 45.75108 8.75470 27099 ft 346 kts 172°
2026-04-26 14:44 45.72736 8.76069 27100 ft 346 kts 173°
2026-04-26 14:45 45.70383 8.76664 27101 ft 346 kts 173°
2026-04-26 14:45 45.68789 8.77064 27097 ft 346 kts 172°
2026-04-26 14:45 45.65620 8.77864 27091 ft 347 kts 172°
2026-04-26 14:45 45.63257 8.78459 27093 ft 346 kts 173°
2026-04-26 14:46 45.60891 8.79054 27093 ft 346 kts 173°
2026-04-26 14:46 45.58513 8.79652 27095 ft 346 kts 173°
2026-04-26 14:46 45.56147 8.80247 27091 ft 347 kts 173°
2026-04-26 14:46 45.53773 8.80841 27083 ft 347 kts 173°
2026-04-26 14:47 45.51428 8.81431 27087 ft 347 kts 173°
2026-04-26 14:47 45.49042 8.82028 27085 ft 347 kts 173°
2026-04-26 14:47 45.46668 8.82621 27084 ft 347 kts 173°
2026-04-26 14:47 45.44309 8.83212 27080 ft 347 kts 173°
2026-04-26 14:48 45.41914 8.83810 27075 ft 347 kts 173°
2026-04-26 14:48 45.39546 8.84402 27078 ft 347 kts 173°
2026-04-26 14:48 45.37177 8.84992 27079 ft 347 kts 173°
2026-04-26 14:48 45.34788 8.85589 27076 ft 347 kts 173°
2026-04-26 14:49 45.32415 8.86178 27070 ft 347 kts 173°
2026-04-26 14:49 45.30059 8.86765 27070 ft 347 kts 173°
2026-04-26 14:49 45.27681 8.87357 27070 ft 347 kts 173°
2026-04-26 14:49 45.25298 8.87948 27068 ft 347 kts 173°
2026-04-26 14:50 45.22936 8.88535 27065 ft 347 kts 173°
2026-04-26 14:50 45.20557 8.89124 27062 ft 347 kts 173°
2026-04-26 14:50 45.18182 8.89713 27064 ft 347 kts 173°
2026-04-26 14:50 45.15805 8.90303 27057 ft 347 kts 173°
2026-04-26 14:51 45.13412 8.90893 27057 ft 347 kts 173°
2026-04-26 14:51 45.11061 8.91475 27058 ft 347 kts 173°
2026-04-26 14:51 45.08672 8.92065 27058 ft 347 kts 173°
2026-04-26 14:51 45.06314 8.92645 27059 ft 347 kts 173°
2026-04-26 14:52 45.03958 8.93227 27057 ft 347 kts 173°
2026-04-26 14:52 45.01579 8.93813 27059 ft 347 kts 173°
2026-04-26 14:52 44.99202 8.94397 27058 ft 347 kts 173°
2026-04-26 14:52 44.96816 8.94986 27063 ft 347 kts 173°
2026-04-26 14:53 44.94445 8.95566 27069 ft 346 kts 173°
2026-04-26 14:53 44.92079 8.96147 27075 ft 346 kts 172°
2026-04-26 14:53 44.89724 8.96724 27080 ft 346 kts 172°
2026-04-26 14:53 44.87354 8.97306 27082 ft 346 kts 172°
2026-04-26 14:54 44.84975 8.97890 27083 ft 346 kts 173°
2026-04-26 14:54 44.82576 8.98478 27088 ft 347 kts 173°
2026-04-26 14:54 44.80186 8.99062 27094 ft 346 kts 173°
2026-04-26 14:54 44.77828 8.99638 27098 ft 347 kts 173°
2026-04-26 14:55 44.75443 9.00218 27097 ft 347 kts 173°
2026-04-26 14:55 44.73079 9.00794 27105 ft 347 kts 173°
2026-04-26 14:55 44.70706 9.01373 27106 ft 347 kts 173°
2026-04-26 14:55 44.68326 9.01952 27105 ft 347 kts 173°
2026-04-26 14:56 44.65969 9.02525 27107 ft 347 kts 173°
2026-04-26 14:56 44.63583 9.03104 27113 ft 347 kts 173°
2026-04-26 14:56 44.61224 9.03677 27115 ft 347 kts 172°
2026-04-26 14:56 44.58840 9.04256 27117 ft 347 kts 172°
2026-04-26 14:57 44.56462 9.04832 27119 ft 347 kts 172°
2026-04-26 14:57 44.54102 9.05404 27120 ft 347 kts 172°
2026-04-26 14:57 44.51697 9.05986 27122 ft 347 kts 172°
2026-04-26 14:57 44.49320 9.06561 27126 ft 347 kts 172°
2026-04-26 14:58 44.46932 9.07138 27125 ft 348 kts 172°
2026-04-26 14:58 44.44544 9.07717 27123 ft 348 kts 172°
2026-04-26 14:58 44.42200 9.08535 27123 ft 350 kts 158°
2026-04-26 14:58 44.40049 9.10127 27127 ft 352 kts 152°
2026-04-26 14:59 44.37925 9.11829 27121 ft 352 kts 152°
2026-04-26 14:59 44.35825 9.13511 27119 ft 353 kts 152°
2026-04-26 14:59 44.33698 9.15210 27120 ft 353 kts 152°
2026-04-26 14:59 44.32273 9.16348 27122 ft 353 kts 152°
2026-04-26 15:00 44.29442 9.18606 27117 ft 353 kts 152°
2026-04-26 15:00 44.27319 9.20295 27114 ft 353 kts 152°
2026-04-26 15:00 44.25173 9.22002 27119 ft 353 kts 152°
2026-04-26 15:00 44.23042 9.23698 27110 ft 354 kts 152°
2026-04-26 15:01 44.20909 9.25393 27109 ft 354 kts 152°
2026-04-26 15:01 44.18769 9.27092 27113 ft 354 kts 152°
2026-04-26 15:01 44.16647 9.28776 27120 ft 354 kts 152°
2026-04-26 15:01 44.14496 9.30482 27119 ft 354 kts 151°
2026-04-26 15:02 44.12361 9.32174 27120 ft 354 kts 151°
2026-04-26 15:02 44.10230 9.33863 27124 ft 354 kts 152°
2026-04-26 15:02 44.08089 9.35555 27123 ft 354 kts 152°
2026-04-26 15:02 44.05952 9.37244 27128 ft 354 kts 152°
2026-04-26 15:03 44.03819 9.38927 27134 ft 354 kts 152°
2026-04-26 15:03 44.01695 9.40601 27135 ft 354 kts 152°
2026-04-26 15:03 43.99546 9.42296 27133 ft 354 kts 152°
2026-04-26 15:03 43.97401 9.43983 27140 ft 354 kts 152°
2026-04-26 15:04 43.95280 9.45651 27143 ft 354 kts 152°
2026-04-26 15:04 43.93132 9.47340 27141 ft 354 kts 152°
2026-04-26 15:04 43.90992 9.49019 27143 ft 354 kts 152°
2026-04-26 15:04 43.88853 9.50698 27144 ft 354 kts 151°
2026-04-26 15:05 43.86711 9.52377 27018 ft 356 kts 151°
2026-04-26 15:05 43.85260 9.53514 26855 ft 355 kts 151°
2026-04-26 15:05 43.82402 9.55752 26304 ft 360 kts 151°
2026-04-26 15:05 43.80217 9.57461 25878 ft 360 kts 151°
2026-04-26 15:06 43.78041 9.59162 25404 ft 356 kts 151°
2026-04-26 15:06 43.75894 9.60840 24942 ft 352 kts 151°
2026-04-26 15:06 43.73790 9.62484 24498 ft 348 kts 151°
2026-04-26 15:06 43.71706 9.64108 24057 ft 345 kts 151°
2026-04-26 15:07 43.67571 9.67328 23167 ft 339 kts 152°
2026-04-26 15:07 43.65516 9.68927 22718 ft 336 kts 152°
2026-04-26 15:07 43.63469 9.70518 22269 ft 334 kts 151°
2026-04-26 15:08 43.61470 9.72071 21830 ft 332 kts 151°
2026-04-26 15:08 43.59473 9.73622 21393 ft 330 kts 151°
2026-04-26 15:08 43.57452 9.75189 20948 ft 329 kts 151°
2026-04-26 15:08 43.55469 9.76726 20514 ft 327 kts 151°
2026-04-26 15:09 43.53505 9.78246 20080 ft 325 kts 151°
2026-04-26 15:09 43.51561 9.79748 19639 ft 317 kts 151°
2026-04-26 15:09 43.49663 9.81218 19194 ft 309 kts 151°
2026-04-26 15:09 43.47806 9.82654 18624 ft 306 kts 151°
2026-04-26 15:10 43.45956 9.84084 18064 ft 303 kts 151°
2026-04-26 15:10 43.44732 9.85028 17705 ft 301 kts 151°
2026-04-26 15:10 43.42337 9.86874 17001 ft 298 kts 150°
2026-04-26 15:10 43.40524 9.88271 16463 ft 295 kts 150°
2026-04-26 15:11 43.38757 9.89632 15933 ft 292 kts 150°
2026-04-26 15:11 43.36991 9.90990 15396 ft 290 kts 150°
2026-04-26 15:11 43.35261 9.92320 14859 ft 287 kts 150°
2026-04-26 15:11 43.33512 9.93664 14324 ft 285 kts 150°
2026-04-26 15:12 43.31803 9.94974 13788 ft 282 kts 150°
2026-04-26 15:12 43.30117 9.96268 13252 ft 280 kts 150°
2026-04-26 15:12 43.28412 9.97577 12705 ft 278 kts 150°
2026-04-26 15:12 43.26757 9.98844 12172 ft 276 kts 150°
2026-04-26 15:13 43.25091 10.00122 11632 ft 274 kts 150°
2026-04-26 15:13 43.23431 10.01395 11089 ft 272 kts 150°
2026-04-26 15:13 43.21803 10.02640 10552 ft 270 kts 150°
2026-04-26 15:13 43.20168 10.03889 9991 ft 268 kts 150°
2026-04-26 15:14 43.18557 10.05119 9446 ft 266 kts 150°
2026-04-26 15:14 43.16953 10.06345 8909 ft 265 kts 150°
2026-04-26 15:14 43.15363 10.07559 8374 ft 260 kts 150°
2026-04-26 15:14 43.13788 10.08732 7828 ft 255 kts 154°
2026-04-26 15:15 43.12178 10.09669 7284 ft 251 kts 158°
2026-04-26 15:15 43.10573 10.10565 6730 ft 248 kts 158°
2026-04-26 15:15 43.09005 10.11446 6185 ft 244 kts 158°
2026-04-26 15:15 43.07452 10.12321 5636 ft 241 kts 158°
2026-04-26 15:16 43.05919 10.13187 5077 ft 238 kts 157°
2026-04-26 15:16 43.04429 10.14055 4748 ft 226 kts 156°
2026-04-26 15:16 43.03012 10.14909 4424 ft 217 kts 155°
2026-04-26 15:16 43.01669 10.15748 4097 ft 209 kts 154°
2026-04-26 15:17 43.00380 10.16580 3766 ft 203 kts 154°
2026-04-26 15:17 42.99546 10.17134 3548 ft 200 kts 153°
2026-04-26 15:17 42.97912 10.18256 3108 ft 193 kts 152°
2026-04-26 15:17 42.96730 10.19100 2781 ft 189 kts 152°
2026-04-26 15:18 42.95579 10.19950 2453 ft 186 kts 151°
2026-04-26 15:18 42.94461 10.20803 2127 ft 183 kts 150°
2026-04-26 15:18 42.93365 10.21666 1802 ft 181 kts 149°
2026-04-26 15:18 42.92267 10.22437 1479 ft 178 kts 161°
2026-04-26 15:19 42.91098 10.22950 1230 ft 178 kts 163°
2026-04-26 15:19 42.89834 10.23469 1245 ft 192 kts 163°
2026-04-26 15:19 42.88589 10.23969 1218 ft 186 kts 163°
2026-04-26 15:19 42.87357 10.24462 1194 ft 181 kts 163°
2026-04-26 15:20 42.86152 10.24942 1189 ft 177 kts 163°
2026-04-26 15:20 42.85012 10.25393 1210 ft 162 kts 163°
2026-04-26 15:20 42.83971 10.25806 1184 ft 148 kts 164°
2026-04-26 15:20 42.83000 10.25787 1183 ft 137 kts 192°
2026-04-26 15:21 42.82079 10.25514 1135 ft 135 kts 193°
2026-04-26 15:21 42.81177 10.25238 1010 ft 129 kts 193°
2026-04-26 15:21 42.80340 10.24979 981 ft 118 kts 193°
2026-04-26 15:21 42.79514 10.24783 948 ft 124 kts 187°
2026-04-26 15:22 42.78642 10.24650 871 ft 126 kts 194°
2026-04-26 15:22 42.77884 10.24147 756 ft 119 kts 213°
2026-04-26 15:22 42.77132 10.23670 344 ft 120 kts 189°
2026-04-26 15:22 42.76353 10.23865 39 ft 107 kts 161°
2026-04-26 15:23 42.75960 10.24044 33 ft 29 kts 162°
2026-04-26 15:23 42.75806 10.24113 30 ft 16 kts 161°
2026-04-26 15:23 42.75748 10.24145 29 ft 1 kts 163°
2026-04-26 15:23 42.75745 10.24136 29 ft 1 kts 310°
2026-04-26 15:24 42.75770 10.24123 30 ft 9 kts 340°
2026-04-26 15:24 42.75856 10.24085 31 ft 12 kts 342°
2026-04-26 15:24 42.75928 10.24053 32 ft 10 kts 342°
2026-04-26 15:24 42.75996 10.24024 33 ft 10 kts 342°
2026-04-26 15:25 42.76062 10.23995 34 ft 9 kts 342°
2026-04-26 15:25 42.76105 10.23976 34 ft 9 kts 342°
2026-04-26 15:25 42.76192 10.23939 35 ft 9 kts 342°
2026-04-26 15:25 42.76247 10.23902 36 ft 6 kts 299°
2026-04-26 15:26 42.76236 10.23856 36 ft 6 kts 227°
2026-04-26 15:26 42.76221 10.23826 36 ft 2 kts 263°
2026-04-26 15:26 42.76223 10.23813 36 ft 0 kts 292°